Regional Weather Roundup
Issued by NWS Glasgow, MT

Home | Current Version | Previous Version | Text Only | Print | Product List | Glossary On
Versions: 1 2 3 4 5 6 7 8 9 10 11 12 13 14 15 16 17 18 19 20 21 22 23 24 25 26 27 28 29 30 31 32 33 34 35 36 37 38 39 40 41 42 43 44 45 46 47 48 49 50
000
ASUS45 KGGW 231415
RWRGGW
HOURLY WEATHER ROUNDUP FOR NORTHEAST MONTANA
NATIONAL WEATHER SERVICE GLASGOW MONTANA
800 AM MDT WED JUL 23 2014

NOTE: "FAIR" INDICATES FEW OR NO CLOUDS BELOW 12,000 FEET WITH NO
SIGNIFICANT WEATHER AND/OR OBSTRUCTIONS TO VISISBILITY.

NORTHEAST MONTANA


CITY           SKY/WX    TMP DP  RH WIND       PRES   REMARKS
GLASGOW        SUNNY     70  60  70 E16       30.16F
PLENTYWOOD       N/A     66  61  84 E8          N/A
WOLF POINT     MOSUNNY   67  60  78 E13       30.18F
JORDAN           N/A     67  60  78 E8        30.16F
WINNETT          N/A     64  58  80 SW1         N/A
SIDNEY         MOSUNNY   70  61  73 CALM      30.22F
GLENDIVE       SUNNY     66  61  82 E5        30.22S
MALTA            N/A    N/A N/A N/A E6          N/A
SCOBEY           N/A     67  59  75 E7        30.21R

FORT PECK REPORTS


CITY           SKY/WX    TMP DP  RH WIND       PRES   REMARKS
FORT PECK        N/A     65  58  78 NE17        N/A
THE PINES        N/A     71  60  68 E3          N/A

SOUTHEAST MONTANA


CITY           SKY/WX    TMP DP  RH WIND       PRES   REMARKS
BILLINGS       MOSUNNY   63  58  83 CALM      30.15S
MILES CITY     SUNNY     68  62  81 NE5       30.19F
BAKER          SUNNY     67  61  81 SE10      30.24R
LIVINGSTON     MOSUNNY   62  52  69 W7        30.21R

CENTRAL MONTANA


CITY           SKY/WX    TMP DP  RH WIND       PRES   REMARKS
HAVRE          PTSUNNY   65  54  67 SE3       30.16R
LEWISTOWN      PTSUNNY   64  55  72 W7        30.19R
GREAT FALLS    TSTM      59  57  93 SW7       30.18R
CUT BANK       CLOUDY    56  54  93 SE8       30.18R
HELENA         PTSUNNY   67  55  65 CALM      30.22S
BUTTE          MOSUNNY   60  50  69 NE3       30.32R
BOZEMAN        MOSUNNY   62  51  67 S3        30.23R

WESTERN MONTANA


CITY           SKY/WX    TMP DP  RH WIND       PRES   REMARKS
MISSOULA       LGT RAIN  61  57  87 S9        30.14F
KALISPELL      NOT AVBL

NORTH DAKOTA


CITY           SKY/WX    TMP DP  RH WIND       PRES   REMARKS
WILLISTON      PTSUNNY   70  62  76 E7        30.22S
DICKINSON      SUNNY     68  62  81 SE12      30.23R
MINOT          CLOUDY    65  63  93 E8        30.27F
BISMARCK       SUNNY     70  61  73 SE9       30.28R

SOUTHERN SASKATCHEWAN


CITY           SKY/WX    TMP DP  RH WIND       PRES   REMARKS
REGINA         MOSUNNY   64  57  77 SE13G20   30.27F
MOOSE JAW      MOSUNNY   63  57  82 SE13      30.26R
ESTEVAN        MOSUNNY   64  57  77 E8        30.28R
SWIFT CURRENT  SUNNY     66  59  77 MISG      30.18F




USA.gov is the U.S. government's official web portal to all federal, state and local government web resources and services.